{"data":{"norad_id":65788,"epoch":"2026-09-20T23:30:35.013024Z","epoch_age_seconds":105305,"freshness":"FRESH","line1":"1 65788U 25217AC  26263.97957191  .00001616  00000+0  24097-3 0  9996","line2":"2 65788  51.8990 259.5227 0000832  49.4293 310.6742 14.79924973 53796","mean_motion":14.79924973,"eccentricity":8.32e-5,"inclination_deg":51.899,"raan_deg":259.5227,"arg_perigee_deg":49.4293,"mean_anomaly_deg":310.6742,"bstar":0.00024097,"rev_number":5379,"period_min":97.302229928652,"perigee_km":628.97792806845,"apogee_km":630.14400901041,"semimajor_km":7007.6979685394,"source":"CELESTRAK","updated_at":"2026-09-21T09:00:15.562956Z"}}